Location: Kerlénat
(48.0338°N, 3.1772°W)
Time: 17:20:09
(UTC+00:00)

Daily predictions for brighter satellites

Satellite Brightness Start Highest point End
(mag) Time Altitude Azimuth Time Altitude Azimuth Time Altitude Azimuth
Resurs 01 Rocket 2.0 20:49:32 10° S 20:53:56 66° W 20:58:23 10° NNW
IRAS Rocket 4.4 20:48:43 10° NNE 20:54:17 57° ESE 20:59:46 10° S
Lacrosse 4 Rocket 1.4 20:52:15 10° SSW 20:56:24 89° SE 21:00:31 10° NNE
Cosmos 292 Rocket 4.0 20:51:46 10° SSW 20:56:31 76° WNW 21:01:18 10° NNE
Tiangong 2.8 20:54:56 10° SSW 20:57:07 17° SSE 20:59:19 10° ESE
DELTA 2 R/B (1) 4.5 20:54:19 10° WSW 20:59:15 32° S 21:04:10 10° SE
FALCON 9 DEB 3.4 21:01:44 10° SW 21:04:48 39° SE 21:07:53 10° ENE
SL-8 R/B 3.7 21:01:41 10° WSW 21:06:28 71° SSE 21:11:16 10° ENE
Terra 2.8 21:03:18 10° SE 21:07:35 35° ENE 21:11:54 10° N
USA 267 3.6 21:04:53 10° ENE 21:11:05 43° SE 21:17:15 10° SSW
Cosmos 1455 3.7 21:08:27 10° NNE 21:11:34 24° ENE 21:14:40 10° SE
Meteor 1-24 Rocket 4.2 21:07:13 10° SSE 21:12:04 38° E 21:17:01 10° NNE
Cosmos 2369 Rocket 3.4 21:07:31 10° NW 21:12:39 38° WSW 21:17:47 10° S
Cosmos 2315 Rocket 4.3 21:07:09 10° SSE 21:13:15 52° E 21:19:21 10° NNE
SL-24 R/B 4.4 21:13:40 10° S 21:17:51 68° WSW 21:22:20 10° NNW
ERBS 4.0 21:16:18 10° W 21:18:36 20° SW 21:20:53 10° S
Spot 2 Rocket 3.6 21:15:40 10° SSE 21:20:41 67° ENE 21:25:46 10° N
CZ-4B R/B 2.8 21:24:36 10° N 21:27:16 33° WNW 21:29:54 10° SW
Lacrosse 5 rocket 2.0 21:23:46 10° NW 21:27:29 47° NNE 21:31:23 10° ESE
ARIANE 5 R/B 3.5 21:23:37 11° SE 21:27:31 38° ENE 21:31:40 10° N
SPOT 3 Rocket 3.8 21:23:24 10° S 21:28:33 73° WSW 21:33:47 10° NNW
Cosmos 1709 Rocket 4.0 21:22:38 10° N 21:28:50 85° E 21:35:05 10° S
Cosmos 2251 Rocket 4.3 21:25:17 10° NNW 21:30:25 48° WSW 21:35:32 10° S
ATLAS 2AS CENTAUR R/B 3.1 21:31:19 10° NW 21:38:29 61° NE 21:44:51 11° ESE
Cosmos 1624 Rocket 4.2 21:34:19 10° S 21:39:23 52° ESE 21:44:27 10° NNE
Cosmos 1190 Rocket 4.1 21:37:45 10° NNW 21:43:07 90° WSW 21:47:39 14° SSE
NOSS 3-4 (A) 4.4 21:37:08 10° NW 21:43:54 52° WSW 21:51:02 12° SSE
NOSS 3-4 (C) 4.4 21:37:14 10° NW 21:44:00 52° WSW 21:51:05 12° SSE
USA 234 3.5 21:39:35 10° ESE 21:46:06 72° NNE 21:52:38 10° NW
Meteor 2-10 Rocket 4.5 21:43:59 10° NNW 21:48:46 42° W 21:53:27 10° SSW
Cosmos 407 Rocket 4.0 21:45:08 10° NNW 21:50:12 54° WSW 21:54:51 12° S
Cosmos 1455 Rocket 3.5 21:46:15 10° NNW 21:50:33 60° W 21:54:41 11° S
SPOT 5 3.1 21:52:00 12° S 21:56:10 60° WSW 22:00:30 10° NNW
Cosmos 1271 Rocket 2.8 21:54:31 10° N 21:58:32 74° E 22:01:16 19° SSE
Cosmos 2056 Rocket 3.5 21:53:41 10° SSW 21:59:02 77° ESE 22:04:29 10° NNE
Meteor 2-5 Rocket 3.9 21:55:38 10° SSW 22:01:10 75° WNW 22:06:44 10° N
Cosmos 1025 Rocket 3.4 21:57:56 10° SSW 22:02:10 64° WNW 22:06:26 10° N
ERS-1 Rocket 3.5 22:04:36 13° S 22:09:02 56° W 22:14:00 10° NNW
Cosmos 676 Rocket 4.0 22:04:15 10° NNW 22:09:36 88° WSW 22:13:24 20° SSE
USA 32 4.2 22:04:54 10° S 22:10:07 75° W 22:15:23 10° N
Cosmos 1420 Rocket 4.0 22:06:05 10° SSW 22:11:18 78° ESE 22:16:37 10° NNE
Cosmos 1607 3.9 22:10:16 10° SSW 22:16:29 76° SE 22:22:41 10° NE
Cosmos 1536 Rocket 3.6 22:13:48 20° S 22:16:41 63° E 22:20:58 10° NNE
CZ-2C R/B 4.1 22:14:30 10° N 22:19:08 65° WNW 22:23:37 10° SSW
Helios 1A Rocket 4.4 22:19:57 11° SSW 22:23:21 29° W 22:26:57 10° NW
Lacrosse 5 1.9 22:18:54 10° NW 22:24:03 79° NE 22:27:56 18° ESE
NOSS 2-1 (E) 4.1 22:20:23 10° NW 22:24:55 81° NE 22:29:25 19° SE
Cosmos 1606 Rocket 4.4 22:21:10 10° N 22:25:11 36° ENE 22:27:26 21° SE
SAR-Lupe-4 3.6 22:24:08 10° NNE 22:27:41 58° ESE 22:29:20 28° S
Cosmos 2184 Rocket 4.0 22:23:14 10° N 22:29:27 88° E 22:33:50 21° S
Cosmos 724 4.3 22:24:23 10° SSW 22:29:58 57° ESE 22:35:38 10° NE
Cosmos 1954 Rocket 4.4 22:25:50 10° NNW 22:31:00 55° WSW 22:34:29 20° S
Tiangong 2.7 22:30:46 10° WSW 22:32:27 21° SSW 22:32:27 21° SSW
Cosmos 1850 Rocket 4.2 22:30:40 10° NNW 22:35:53 64° ENE 22:39:02 24° SE
CSL-04 DEB 4.5 22:31:48 10° NNE 22:36:08 78° ESE 22:38:53 22° S
Cosmos 2228 2.9 22:34:48 10° N 22:39:03 76° E 22:41:10 29° SSE
Meteor 1-21 Rocket 4.4 22:35:49 23° SSE 22:39:12 57° E 22:44:42 10° NNE
Cosmos 1703 3.1 22:38:48 27° S 22:40:51 84° E 22:44:43 10° N
FALCON 9 DEB 4.0 22:37:52 10° W 22:41:03 48° NNW 22:44:15 10° ENE
SAR-Lupe-1 4.1 22:39:38 10° NNE 22:43:14 80° WNW 22:45:11 25° SSW
Cosmos 1408 4.3 22:43:33 17° E 22:44:05 17° E 22:46:25 10° NE
Terra 3.2 22:41:45 13° SSW 22:45:22 31° W 22:49:37 10° NNW
Cosmos 1455 3.8 22:43:45 10° NNW 22:47:01 28° W 22:49:28 15° SW
ALOS 2 3.8 22:46:37 19° ESE 22:48:59 31° ENE 22:52:52 10° N
SL-8 R/B 3.7 22:44:11 10° W 22:49:02 84° N 22:53:53 10° E
Cosmos 1726 Rocket 3.9 22:47:27 10° N 22:51:42 52° ENE 22:53:36 29° SE
USA 267 3.5 22:47:50 10° NE 22:54:21 73° NNW 23:00:52 10° WSW
Cosmos 1980 Rocket 3.5 22:49:21 10° NNW 22:54:31 33° NE 22:59:14 12° ESE
RESURS DK-1 2.7 22:52:59 10° NNW 22:57:05 59° ENE 22:59:03 28° SE
Cosmos 1697 Rocket 3.0 22:53:35 10° NNW 22:59:11 61° ENE 23:02:41 23° SE
Cosmos 1331 Rocket 4.3 22:57:21 28° SSE 22:59:54 50° ESE 23:05:01 10° NNE
Cosmos 1452 Rocket 3.4 22:57:19 20° SSW 23:00:58 85° ESE 23:06:16 10° NNE
ARIANE 5 R/B 4.3 23:01:09 14° SW 23:04:04 26° W 23:07:49 10° NW
NOSS 2-1 (C) 4.5 23:01:52 10° NW 23:06:22 50° SW 23:09:23 27° S
Lacrosse 5 rocket 2.1 23:02:51 10° WNW 23:06:26 34° SW 23:07:17 31° SSW
Spot 4 3.9 23:04:25 30° SSE 23:06:47 74° ENE 23:11:34 10° N
Cosmos 1892 3.8 23:06:34 26° ESE 23:07:20 29° E 23:10:36 10° NNE
USA 276 4.2 23:10:14 15° E 23:10:14 15° E 23:10:54 10° ENE
Cosmos 2084 3.9 23:04:30 10° WSW 23:08:16 54° NW 23:12:06 10° NE
ASTEX 1 3.4 23:03:47 10° N 23:08:49 85° W 23:11:36 27° S
ERS-2 3.9 23:06:35 10° NE 23:09:08 18° E 23:09:26 18° E
ADEOS Rocket 3.8 23:05:35 21° SE 23:10:18 59° ENE 23:17:41 10° N
Meteor 2-1 Rocket 4.2 23:08:34 10° NNW 23:14:05 75° W 23:17:01 28° S
Cosmos 2058 Rocket 3.4 23:10:37 10° N 23:14:56 54° ENE 23:16:43 32° SE
Cosmos 1110 Rocket 3.9 23:15:12 27° SSW 23:18:06 77° ESE 23:23:25 10° NNE
Cosmos 2181 Rocket 4.5 23:15:18 26° SSE 23:18:24 46° E 23:24:16 10° NNE
GP-B 3.1 23:16:42 10° N 23:21:11 83° W 23:23:05 34° S
Cosmos 2360 4.2 23:16:07 10° NNW 23:21:54 85° ENE 23:25:01 28° SSE
Cosmos 1892 Rocket 3.5 23:22:22 36° S 23:24:07 77° E 23:28:33 10° NNE
Cosmos 1656 4.2 23:20:38 10° NW 23:25:48 45° WSW 23:28:19 27° SSW
ATLAS 2AS CENTAUR R/B 3.5 23:22:47 10° NW 23:29:05 36° WSW 23:32:16 24° SSW
USA 234 3.7 23:26:12 27° S 23:29:22 45° SW 23:35:37 10° WNW
Cosmos 1833 Rocket 2.6 23:26:16 26° SSW 23:29:34 80° ESE 23:35:13 10° NNE
BREEZE-M DEB (TANK) 3.7 23:35:44 10° W 23:38:49 79° N 23:50:06 10° E
Okean 1-7 Rocket 4.1 23:39:48 34° SE 23:41:12 47° E 23:45:29 10° NNE
Cosmos 1626 Rocket 4.2 23:42:03 33° SE 23:43:18 41° E 23:47:23 10° NNE
Cosmos 2082 Rocket 2.7 23:41:32 31° SSE 23:43:45 46° ESE 23:49:10 10° NE
Meteor 1-27 4.3 23:43:00 10° N 23:48:36 71° ENE 23:51:21 31° SSE
Cosmos 1869 3.5 23:46:01 10° N 23:49:49 57° ENE 23:50:55 40° SE
BREEZE-M DEB (TANK) 3.8 23:44:21 10° SW 23:55:33 61° SSE 23:59:03 10° ENE
Cosmos-2242 4.3 23:51:46 10° N 23:55:37 32° ENE 23:57:28 22° ESE
